Location: Kalamazoo
(42.2920°N, 85.5870°W)
Time: 16:43:25
(UTC-04:00)

Daily predictions for brighter satellites

Satellite Brightness Start Highest point End
(mag) Time Altitude Azimuth Time Altitude Azimuth Time Altitude Azimuth
Meteor 2-16 Rocket 4.4 20:40:40 10° S 20:46:41 68° E 20:52:44 10° NNE
Meteor 1-5 Rocket 4.1 20:41:59 10° S 20:47:17 70° E 20:52:46 10° NNE
ALOS 2.5 20:44:33 10° SSE 20:49:05 52° ENE 20:53:38 10° N
Cosmos 1346 Rocket 2.8 20:45:57 10° N 20:49:55 71° E 20:53:54 10° SSE
Helios 1A 3.6 20:50:23 10° S 20:54:31 62° W 20:58:42 10° NNW
OTV 4 2.5 20:53:19 10° WSW 20:55:31 19° SSW 20:57:45 10° SSE
USA 186 2.4 20:53:15 10° SE 20:55:59 31° ENE 20:58:35 10° N
NOSS 3-4 (A) 4.2 20:49:51 10° NW 20:56:51 70° WSW 21:04:14 10° SSE
NOSS 3-4 (C) 4.2 20:49:58 10° NW 20:56:58 71° WSW 21:04:23 10° SSE
Cosmos 1461 3.3 20:58:18 10° NW 21:02:18 59° WSW 21:06:10 10° SSE
SL-24 R/B - RUBIN 2 4.5 20:57:56 10° SSW 21:03:36 55° ESE 21:09:54 10° NE
Cosmos 1821 Rocket 4.4 21:03:32 10° SSW 21:09:35 66° W 21:15:40 10° N
Cosmos 1605 Rocket 4.0 21:06:24 10° S 21:12:43 78° E 21:18:59 10° N
CZ-4B DEB 3.4 21:10:18 10° S 21:13:32 60° W 21:16:48 10° NNW
Cosmos 1743 4.2 21:13:07 13° SE 21:15:22 19° E 21:18:12 10° NE
Tiangong 1 1.0 21:13:26 10° W 21:16:34 87° N 21:18:49 17° E
RESURS DK-1 3.3 21:13:05 10° N 21:16:51 33° ENE 21:19:38 16° ESE
Cosmos 1697 Rocket 2.9 21:13:25 10° S 21:18:46 46° ESE 21:24:09 10° NE
Cosmos 2100 Rocket 4.4 21:16:47 10° SSE 21:22:32 40° E 21:28:16 10° NNE
H-2A R/B 3.5 21:20:45 15° E 21:22:32 19° ENE 21:25:28 10° NNE
Iridium 4 Rocket 3.4 21:18:25 10° N 21:23:24 59° E 21:27:54 10° SSE
Cosmos 1626 Rocket 3.5 21:20:19 10° N 21:24:44 82° E 21:29:05 10° S
BREEZE-M DEB (TANK) 4.2 21:21:09 10° SW 21:25:12 78° SE 21:40:14 10° ENE
Cosmos 2298 Rocket 4.0 21:21:29 10° NNW 21:26:48 70° ENE 21:31:50 11° SSE
Envisat 3.7 21:23:25 15° SE 21:27:01 35° ENE 21:31:36 10° N
YAOGAN 11 4.5 21:24:12 13° SE 21:28:02 47° ENE 21:32:19 10° N
Cosmos 1937 Rocket 3.9 21:23:05 10° N 21:28:11 47° ENE 21:32:04 17° SE
Cosmos 2278 4.5 21:23:16 10° SW 21:28:50 57° WNW 21:34:28 10° NNE
SL-16 R/B 4.2 21:31:23 10° ENE 21:31:23 10° ENE 21:31:25 10° ENE
Cosmos 1455 Rocket 4.2 21:25:35 10° SSW 21:29:44 46° WNW 21:33:57 10° N
Cosmos 2084 3.3 21:25:55 10° NW 21:30:00 86° NE 21:33:09 18° SE
Cosmos 2061 Rocket 4.3 21:26:48 10° SSE 21:32:41 43° E 21:38:32 10° NNE
Cosmos 1602 Rocket 3.7 21:30:02 10° N 21:34:31 79° W 21:38:55 10° S
Cosmos 220 Rocket 4.4 21:34:35 10° NNW 21:38:45 59° WSW 21:42:53 10° S
Cosmos 990 Rocket 4.5 21:34:01 10° N 21:39:02 43° ENE 21:42:00 22° SE
H-2A R/B 3.7 21:37:12 10° S 21:40:59 48° W 21:44:49 10° NNW
Lacrosse 5 1.8 21:36:44 10° NW 21:41:49 77° NE 21:44:53 24° SE
Cosmos 1980 Rocket 2.5 21:36:58 10° S 21:42:18 44° ESE 21:47:41 10° NE
deb Chang Zheng 4 4.5 21:39:27 10° NE 21:43:19 28° E 21:44:26 25° ESE
Cosmos 1975 3.7 21:45:52 10° SSW 21:49:53 53° W 21:53:55 10° N
SPOT 5 3.6 21:49:22 26° ESE 21:51:17 35° ENE 21:55:37 10° N
Cosmos 1459 Rocket 3.9 21:45:41 10° S 21:51:37 63° E 21:57:39 10° NNE
ERS-1 Rocket 2.9 21:48:21 17° SSE 21:52:12 76° ENE 21:57:14 10° N
Cosmos 2150 Rocket 4.0 21:47:20 10° NNW 21:52:30 81° WSW 21:56:29 17° SSE
Lacrosse 5 rocket 3.1 21:52:49 10° WNW 21:55:38 21° SW 21:57:58 12° S
BREEZE-M TANK 3.2 21:44:55 10° WNW 21:56:17 84° SSW 21:58:04 33° ESE
Cosmos 1666 4.0 22:00:57 25° ENE 22:00:57 25° ENE 22:03:15 10° NNE
Cosmos 1656 4.3 21:56:57 10° SW 22:02:29 59° WNW 22:07:58 10° NNE
Cosmos 2058 Rocket 3.7 22:03:45 34° E 22:03:53 34° E 22:07:59 10° NNE
Cosmos 2098 Rocket 4.3 22:00:54 23° SSE 22:04:42 43° E 22:10:05 10° NNE
Cosmos 1763 Rocket 3.4 21:59:51 10° S 22:04:49 55° ESE 22:09:47 10° NNE
SJ-11-01 4.4 22:01:22 17° S 22:04:55 74° WSW 22:09:37 10° NNW
SPOT 1/Viking Rocket 4.5 22:05:15 28° E 22:06:23 31° ENE 22:10:54 10° N
Cosmos 2263 Rocket 3.7 22:03:39 10° N 22:07:39 20° NE 22:09:09 18° ENE
Cosmos 1606 Rocket 3.5 22:06:32 33° SSE 22:08:19 60° E 22:12:43 10° NNE
Cosmos 1898 Rocket 4.1 22:03:22 10° NNW 22:08:33 55° WSW 22:12:34 16° S
CZ-4 DEB 3.5 22:07:23 29° SSW 22:08:39 48° W 22:11:43 10° NNW
Cosmos 1500 4.3 22:07:26 10° SSW 22:11:02 43° WNW 22:14:40 10° N
DELTA 2 R/B (1) 4.5 22:06:12 10° W 22:11:13 35° SSW 22:13:06 28° SSE
Cosmos 2227 Rocket 4.3 22:06:55 10° NW 22:11:17 23° W 22:15:37 10° SSW
Cosmos 1125 Rocket 4.2 22:09:54 10° N 22:14:44 37° ENE 22:15:42 34° E
Terra 3.8 22:15:54 14° ENE 22:15:54 14° ENE 22:18:06 10° NNE
Cosmos 2322 Rocket 3.1 22:16:55 29° E 22:16:55 29° E 22:20:44 10° NE
YAOGAN 6 3.3 22:16:13 40° ENE 22:16:13 40° ENE 22:19:23 10° N
Cosmos 1340 2.6 22:15:58 10° N 22:19:46 86° W 22:20:21 63° S
OAO 2 Rocket 4.1 22:17:59 10° WSW 22:22:31 34° S 22:22:50 34° S
USA 215 4.3 22:18:44 19° ENE 22:22:42 36° NNE 22:28:34 10° NW
Meteor 1-21 4.2 22:20:23 10° N 22:26:12 86° W 22:29:03 32° S
Cosmos 2297 Rocket 4.1 22:21:55 10° NW 22:26:24 24° WSW 22:30:51 10° SSW
Cosmos 1939 Rocket 3.6 22:25:01 30° SSW 22:26:48 52° W 22:30:53 10° NNW
Cosmos 841 Rocket 3.3 22:23:26 12° SSW 22:28:15 80° ESE 22:33:29 10° NNE
Meteor 2-9 Rocket 4.1 22:26:59 45° SSE 22:28:21 59° E 22:33:39 10° NNE
SL-08 R/B 4.4 22:25:28 26° S 22:29:10 74° E 22:35:19 10° NNE
Cosmos 1802 Rocket 4.1 22:23:33 10° S 22:29:57 78° W 22:36:25 10° N
Cosmos 2360 4.1 22:24:19 10° SSW 22:30:00 77° ESE 22:35:45 10° NNE
Cosmos 1726 Rocket 3.4 22:30:18 52° S 22:31:22 89° W 22:35:48 10° N
MetOp-A 4.0 22:33:48 50° SSE 22:35:17 83° ENE 22:40:41 10° NNW
Cosmos 2227 4.2 22:29:56 10° NNW 22:35:42 82° WSW 22:37:26 47° SSE
Cosmos 2016 Rocket 4.0 22:35:00 16° SSW 22:40:05 77° W 22:46:19 10° N
Cosmos 405 Rocket 4.5 22:36:56 10° N 22:38:40 22° NNE 22:38:40 22° NNE
ASTEX 1 3.4 22:39:17 10° N 22:44:19 82° W 22:45:36 51° SSW
Cosmos 1375 Rocket 4.5 22:50:11 45° S 22:52:05 64° ESE 22:58:37 10° NE
Tiangong 1 3.8 22:50:04 10° W 22:50:47 15° W 22:50:47 15° W
BREEZE-M DEB (TANK) 3.1 22:51:44 10° WNW 22:53:27 44° W 22:53:27 44° W
RESURS DK-1 4.3 22:51:31 10° NW 22:54:44 22° WSW 22:55:34 21° WSW
Cosmos 372 Rocket 4.3 22:50:04 10° N 22:54:42 49° NE 22:54:42 49° NE
H-2A R/B 3.1 22:57:54 36° WSW 22:58:17 37° W 23:02:09 10° NNW
USA 245 4.5 23:02:14 57° S 23:03:37 80° WSW 23:09:59 10° NNW
SL-08 RB Rocket 4.1 23:05:54 61° N 23:05:54 61° N 23:09:46 10° N
Cosmos 2228 3.8 23:07:21 48° NNW 23:07:21 48° NNW 23:10:35 10° N
SL-16 R/B 2.1 23:13:10 79° NE 23:13:10 79° NE 23:18:30 10° NNE
NOAA 11 4.2 23:13:22 74° SW 23:13:34 75° WSW 23:19:04 10° NNW
ARGOS 3.2 23:16:23 71° WSW 23:16:26 71° WSW 23:21:50 10° NNW
Tsikada Rocket 4.4 23:11:26 10° NNW 23:17:46 61° W 23:19:18 48° SW
SL-19 R/B 4.4 23:15:45 10° N 23:21:09 64° WNW 23:21:42 60° WSW
CZ-4B R/B 3.9 23:16:25 10° NNE 23:20:03 52° N 23:20:03 52° N
Cosmos 2346 Rocket 4.3 23:17:13 10° N 23:23:18 80° NE 23:23:18 80° NE
Lacrosse 5 3.9 23:20:51 10° WNW 23:24:05 18° WSW 23:24:05 18° WSW
H-2A R/B 2.6 23:27:30 50° N 23:27:30 50° N 23:31:10 10° N
Cosmos 1980 Rocket 4.0 23:21:32 10° WSW 23:26:27 30° NW 23:31:25 10° N
Cosmos 2360 Rocket 4.0 23:30:08 21° NE 23:30:08 21° NE 23:32:00 10° NE
BREEZE-M DEB (TANK) 4.1 23:27:18 10° WSW 23:37:37 74° WSW 23:37:37 74° WSW
Cosmos 2263 Rocket 2.8 23:46:36 10° NNW 23:50:51 51° NW 23:50:51 51° NW
Terra 3.2 23:54:47 36° NNW 23:54:47 36° NNW 23:57:38 10° NNW
